"Pseudo-MPEC" for ST26G94

Created 2026 Jul 23 23:35:10 UT using Find_Orb

Click here for an explanation of pseudo-MPECs

 
 Astrometry: 
     ST26G94* C2026 07 23.39938220 50 43.999+26 19 04.89   ~7NHK 18.72GVNEOCPU68
     ST26G94  C2026 07 23.40272320 50 49.918+26 19 28.53   ~7NHK 18.72GVNEOCPU68
     ST26G94  C2026 07 23.41422520 51 10.380+26 20 50.72   ~7NHZ 18.34GVNEOCPU74
     ST26G94  C2026 07 23.41516120 51 12.036+26 20 57.11   ~7NHZ 18.34GVNEOCPU74
     ST26G94 1C2026 07 23.88960121 08 12.22 +27 16 37.3    ~7NM5 18.3 GVNEOCPK88
     ST26G94 1C2026 07 23.89112521 08 15.43 +27 16 49.1    ~7NM5 18.4 GVNEOCPK88
     ST26G94 1C2026 07 23.89286221 08 19.06 +27 17 02.6    ~7NM5 18.6 GVNEOCPK88
     ST26G94 KB2026 07 23.94827521 10 19.476+27 24 33.12   ~7NNZ 19.0 GWNEOCPL47
     ST26G94 KB2026 07 23.95047521 10 24.062+27 24 49.93   ~7NNZ 19.1 GWNEOCPL47
     ST26G94 KB2026 07 23.95266221 10 28.694+27 25 07.18   ~7NNZ 18.9 GWNEOCPL47
     ST26G94 KB2026 07 23.95485021 10 33.331+27 25 24.49   ~7NNZ 19.4 GWNEOCPL47

Station data:
(K88) GINOP-KHK, Piszkéstető  (N47.917453 E19.893670)  Hungary.  Observer K.
   Sárneczky. 0.60-m Schmidt + CCD.
(L47) Osservatorio Astronomico, Piobbico  (N43.585893 E12.507110)  Italy.
   Observers A. Teseo, A. Annamelia. 0.20-m f/6.3 Schmidt-Cassegrain + CCD.
(U68) JPL SynTrack Robotic Telescope, Auberry  (N37.070387 W119.412990)
   US/California.  Observers N. Saini, C. Zhai, R. Trahan, M. Zhan, M. Shao.
   0.28-m f/2.2 Schmidt + CCD.
(U74) JPL SynTrack Robotic Telescope 2, Auberry  (N37.070341 W119.412800)
   US/California.  Observers N. Saini, C. Zhai, R. Trahan, M. Zhan, M. Shao.
   0.36-m f/2.2 Schmidt.

Orbital elements:  ST26G94
   Perihelion 2026 Aug 25.864312 +/- 0.168 TT = 20:44:36.5 (JD 2461278.364312)
Epoch 2026 Jul 24.0 TT = JDT 2461245.5   Earth MOID: 0.0016   Ma: 0.0702
M 337.971627855 +/- 0.16            (J2000 ecliptic)             AutoNEOCP
n   0.670282463 +/- 0.00196         Peri.  208.252106 +/- 0.22
a   1.293096127 +/- 0.00252         Node   128.511219 +/- 0.046
e   0.23464341 +/- 0.0014           Incl.    4.610761 +/- 0.023
P   1.470/537.077d         H 26.04  G  0.15   U  8.6
q 0.989679638 +/- 0.000289    Q 1.596512616 +/- 0.00491
From 11 observations 2026 July 23 (13.3 hr); mean residual 0".45
Residuals in arcseconds: 
260723 U68  .49+  .42-    260723 K88  .06-  .18+    260723 L47  .57-  .67-    
260723 U68  .26+  .51-    260723 K88  .16+  .14+    260723 L47  .02+  .08+    
260723 U74  .27-  .54+    260723 K88  .02+  .16+    260723 L47  .65+  .91+    
260723 U74  .50-  .37+    260723 L47  .21-  .84-    

Ephemerides (geocentric):
Date (UTC) HH   RA             Dec           delta  r     elong  mag " sig PA
---- --------  ------------   ------------  ------ ------ -----  --- --------
2026 07 24 00  21 12 06.154   +27 33 24.97  .01605 1.0263 130.3 19.0 1.28 152
2026 07 24 01  21 13 42.288   +27 38 19.97  .01597 1.0262 130.1 19.0 1.31 163
2026 07 24 02  21 15 19.457   +27 43 13.37  .01590 1.0261 129.9 18.9 1.38 174
2026 07 24 03  21 16 57.667   +27 48 05.04  .01583 1.0260 129.8 18.9 1.52   6
2026 07 24 04  21 18 36.926   +27 52 54.86  .01575 1.0259 129.6 18.9 1.74  17
2026 07 24 05  21 20 17.238   +27 57 42.69  .01568 1.0258 129.4 18.9 2.03  27
2026 07 24 06  21 21 58.611   +28 02 28.41  .01561 1.0257 129.2 18.9 2.40  35
2026 07 24 07  21 23 41.049   +28 07 11.87  .01554 1.0256 129.0 18.9 2.84  41
2026 07 24 08  21 25 24.559   +28 11 52.92  .01547 1.0256 128.8 18.9 3.35  46
2026 07 24 09  21 27 09.145   +28 16 31.44  .01540 1.0255 128.6 18.9 3.92  50
2026 07 24 10  21 28 54.812   +28 21 07.25  .01534 1.0254 128.4 18.9 4.56  54
2026 07 24 11  21 30 41.564   +28 25 40.22  .01527 1.0253 128.2 18.9 5.26  57
2026 07 24 12  21 32 29.405   +28 30 10.19  .01520 1.0252 128.0 18.9 6.02  59
2026 07 24 13  21 34 18.337   +28 34 36.99  .01514 1.0251 127.8 18.9 6.85  61
2026 07 24 14  21 36 08.364   +28 39 00.47  .01507 1.0250 127.6 18.9 7.74  63
2026 07 24 15  21 37 59.488   +28 43 20.47  .01501 1.0249 127.4 18.9 8.69  65
2026 07 24 16  21 39 51.710   +28 47 36.80  .01494 1.0249 127.2 18.9 9.71  66
2026 07 24 17  21 41 45.033   +28 51 49.31  .01488 1.0248 127.0 18.9 10.8  67
2026 07 24 18  21 43 39.456   +28 55 57.82  .01482 1.0247 126.7 18.9 11.9  68
2026 07 24 19  21 45 34.979   +29 00 02.14  .01476 1.0246 126.5 18.9 13.1  69
2026 07 24 20  21 47 31.603   +29 04 02.11  .01470 1.0245 126.3 18.9 14.4  70
2026 07 24 21  21 49 29.325   +29 07 57.54  .01464 1.0244 126.1 18.9 15.8  71
2026 07 24 22  21 51 28.144   +29 11 48.25  .01458 1.0243 125.8 18.9 17.2  72
2026 07 24 23  21 53 28.058   +29 15 34.04  .01452 1.0243 125.6 18.9 18.7  73
2026 07 25 00  21 55 29.063   +29 19 14.73  .01447 1.0242 125.4 18.9 20.2  74
2026 07 25 01  21 57 31.155   +29 22 50.13  .01441 1.0241 125.1 18.9 21.9  74
2026 07 25 02  21 59 34.329   +29 26 20.05  .01436 1.0240 124.9 18.9 23.6  75
2026 07 25 03  22 01 38.580   +29 29 44.29  .01430 1.0239 124.6 18.9 25.4  75
2026 07 25 04  22 03 43.901   +29 33 02.66  .01425 1.0238 124.4 18.9 27.2  76
2026 07 25 05  22 05 50.286   +29 36 14.96  .01420 1.0237 124.1 18.9 29.1  77
2026 07 25 06  22 07 57.727   +29 39 20.99  .01415 1.0236 123.8 18.9 31.1  77
2026 07 25 07  22 10 06.214   +29 42 20.55  .01410 1.0236 123.6 18.9 33.2  78
2026 07 25 08  22 12 15.737   +29 45 13.45  .01405 1.0235 123.3 18.9 35.4  78
2026 07 25 09  22 14 26.288   +29 47 59.49  .01400 1.0234 123.0 18.9 37.6  79
2026 07 25 10  22 16 37.853   +29 50 38.47  .01395 1.0233 122.8 18.9 39.9  79
2026 07 25 11  22 18 50.420   +29 53 10.19  .01390 1.0232 122.5 18.9 42.3  80
2026 07 25 12  22 21 03.977   +29 55 34.45  .01386 1.0231 122.2 18.9 44.8  80
2026 07 25 13  22 23 18.509   +29 57 51.06  .01381 1.0230 121.9 18.9 47.4  81
2026 07 25 14  22 25 34.000   +29 59 59.82  .01377 1.0230 121.7 18.9 50.0  81
2026 07 25 15  22 27 50.435   +30 02 00.55  .01373 1.0229 121.4 18.9 52.7  81
2026 07 25 16  22 30 07.797   +30 03 53.04  .01369 1.0228 121.1 18.9 55.5  82
2026 07 25 17  22 32 26.067   +30 05 37.11  .01364 1.0227 120.8 18.9 58.4  82
2026 07 25 18  22 34 45.226   +30 07 12.57  .01360 1.0226 120.5 18.9 61.4  83
2026 07 25 19  22 37 05.254   +30 08 39.24  .01357 1.0225 120.2 18.9 64.4  83
2026 07 25 20  22 39 26.131   +30 09 56.95  .01353 1.0225 119.9 18.9 67.5  84
2026 07 25 21  22 41 47.834   +30 11 05.51  .01349 1.0224 119.6 18.9 70.7  84
2026 07 25 22  22 44 10.340   +30 12 04.75  .01346 1.0223 119.3 18.9 74.0  84
2026 07 25 23  22 46 33.626   +30 12 54.52  .01342 1.0222 119.0 18.9 77.4  85